[[{"header":{"parameterUnit":"m.s-1","parameterCategory":1,"la1":30.2991,"la2":30.254,"lo1":-89.0895,"lo2":-89.0444,"dy":0.0017,"dx":0.0017,"nx":28,"ny":28,"refTime":"2023-10-20T09:00:00:Z","depth":0,"parameterNumber":2,"parameterNumberName":"U-component_of_WINDS"},"data":[0,0,0,0,0,0,0,0,0,0,0,0,0,0,0,0,0,0,0,0,0,0,0,0,0,0,0,0,0,0,0,0,0,0,0,0,0,0,0,0,0,0,0,0,0,0,0,0,0,0,0,0,0,0,0,0,0,0,1.8373,1.8373,0,1.8395,1.8395,1.8395,1.8309,1.8306,1.8304,1.8301,1.8327,1.833,1.8333,0,0,0,0,0,0,0,0,0,0,0,0,0,1.8262,1.8265,1.8373,1.8373,1.8374,1.8395,1.8395,1.8395,1.8309,1.8306,1.8303,1.83,1.8326,1.833,1.8333,0,0,0,0,0,0,0,0,0,0,0,0,0,1.83,1.8266,1.8373,1.8333,1.833,1.8395,1.8395,1.8395,1.831,1.8306,1.8302,1.8299,1.8325,1.8329,1.8334,1.8439,0,0,1.8348,1.835,0,0,0,0,0,0,0,0,1.8298,1.8304,1.8339,1.8336,1.8332,1.8345,1.8365,1.841,1.8311,1.8318,1.8301,1.8297,1.8336,1.834,1.8352,1.844,1.8441,1.8348,1.8351,1.8353,1.8354,0,0,0,0,0,0,0,1.8296,1.8303,1.8382,1.834,1.8336,1.8316,1.8317,1.8373,1.8349,1.8317,1.8311,1.8314,1.8334,1.8348,1.8352,1.8442,1.8348,1.8352,1.8355,1.8357,1.8621,1.8625,0,0,0,0,0,0,1.8298,1.8301,1.8381,1.8382,1.8305,1.8321,1.8322,1.8345,1.8348,1.8344,1.8317,1.831,1.8342,1.8347,1.8353,1.8479,1.8353,1.8357,1.836,1.8617,1.8622,1.8627,0,0,0,0,0,0,1.8296,1.8306,1.838,1.834,1.8348,1.8327,1.8353,1.8348,1.8362,1.8348,1.8344,1.8336,1.8339,1.8346,1.8419,1.8479,1.8359,1.8364,1.8612,1.8619,1.8625,1.8731,0,0,0,0,0,0,1.8293,1.8305,1.8344,1.8342,1.8351,1.8445,1.8357,1.8351,1.8369,1.836,1.8364,1.8362,1.8337,1.8413,1.8424,1.8483,1.8367,1.8607,1.8615,1.8623,1.8723,1.8741,1.8756,0,0,0,0,0,1.8289,1.8373,1.8346,1.8356,1.8398,1.8448,1.8453,1.8422,1.8374,1.8414,1.8406,1.8361,1.847,1.8421,1.8432,1.8494,1.8603,1.8613,1.8622,1.8715,1.8737,1.8756,0,0,0,0,0,0,1.8383,1.8372,1.8342,1.8427,1.8439,1.8433,1.8482,1.8446,1.8473,1.8463,1.8425,1.8426,1.8507,1.8507,1.8452,1.8598,1.8528,1.8541,1.8595,1.8616,1.8633,1.8632,1.8371,0,0,0,0,0,1.8414,1.8454,1.8442,1.8519,1.8526,1.8504,1.8524,1.8499,1.8511,1.8516,1.8512,1.8527,1.8564,1.859,1.8623,1.8722,1.8723,1.877,1.8787,1.8801,1.8813,1.8869,1.8891,1.8658,1.8658,1.8658,0,0,1.8477,1.8476,1.8504,1.8538,1.8544,1.8589,1.8508,1.8558,1.8592,1.8524,1.8593,1.8591,1.8604,1.8691,1.8729,1.8694,1.8877,1.8813,1.8824,1.8829,1.8881,1.8903,1.8923,1.8665,1.8664,1.8663,0,0,1.8617,1.8619,1.8684,1.8693,1.8703,1.8688,1.8704,1.8704,1.8701,1.8769,1.872,1.876,1.8824,1.8837,1.8852,1.8999,1.8961,1.9011,1.91,1.9155,1.9174,1.919,1.9246,1.9266,1.9023,1.9023,1.9023,0,1.8695,1.8759,1.8723,1.8777,1.8795,1.8734,1.8802,1.8812,1.8834,1.8849,1.8809,1.8891,1.8895,1.8986,1.9023,1.9035,1.9055,1.9011,1.9174,1.919,1.9204,1.9257,1.9278,1.9029,1.9028,1.9028,1.9027,0,1.8857,1.8902,1.8954,1.8977,1.9,1.9061,1.9036,1.9064,1.9038,1.9028,1.91,1.9104,1.9139,1.9158,1.9132,1.9247,1.9225,1.918,1.9109,1.9233,1.9283,1.9303,1.9038,1.9036,1.9034,1.9032,0,0,1.9056,1.9059,1.9079,1.909,1.9099,1.9134,1.9193,1.9227,1.9254,1.9271,1.9322,1.938,1.9339,1.9356,1.9332,1.938,1.9501,1.9329,1.9329,1.9364,1.9632,1.9668,1.9692,1.9475,1.9478,1.9481,1.9632,0,1.9196,1.9296,1.9266,1.9369,1.9412,1.9357,1.9409,1.9421,1.9414,1.9451,1.9443,1.9486,1.9427,1.9438,1.9482,1.9477,1.9555,1.9465,1.9525,1.9528,1.9527,1.9717,1.9755,1.9897,1.9651,1.9654,1.9656,0,1.9372,1.9397,1.9504,1.9508,1.9525,1.9572,1.9603,1.9638,1.9652,1.9644,1.9664,1.9631,1.9692,1.962,1.9706,1.9646,1.9668,1.967,1.9674,1.9681,1.9601,1.9732,1.9941,1.9964,1.9685,1.9683,1.9681,0,1.9512,1.9571,1.9644,1.9655,1.966,1.9696,1.97,1.971,1.9733,1.976,1.9775,1.9809,1.9828,1.9856,1.9834,1.9783,1.9925,1.985,1.9923,1.9924,1.9957,1.9956,2.0176,1.9967,1.9967,1.9966,1.9966,0,1.9672,1.9741,1.9707,1.9752,1.9828,1.9794,1.9871,1.9869,1.9879,1.9924,1.9877,1.9922,1.9888,1.993,1.9913,1.9989,1.9997,1.9995,1.999,2.0001,2.0002,2.0017,2.0008,1.9972,1.9971,1.997,1.9969,0,1.9842,1.9821,1.9897,1.9897,1.9898,1.9955,1.9956,1.9999,1.9988,2.0047,2.0058,2.0043,2.009,2.007,2.012,2.0109,2.0208,2.0188,2.0203,2.02,2.0275,2.027,2.0515,2.0547,2.0314,2.0316,2.0318,0,1.9947,1.9999,2.0004,2.0031,2.0038,2.0082,2.0106,2.0074,2.0102,2.0123,2.0165,2.0208,2.0241,2.032,2.0314,2.0353,2.0337,2.042,2.0342,2.0353,2.0343,2.0341,2.0348,2.0436,2.0439,2.0441,2.0443,0,2.0138,2.0126,2.0161,2.0194,2.0224,2.0249,2.0269,2.0294,2.0264,2.0298,2.0345,2.0371,2.0423,2.0468,2.0503,2.0509,2.0474,2.0467,2.0487,2.05,2.0508,2.0509,2.0249,2.0462,2.046,2.0459,2.0458,2.0457,2.0281,2.0325,2.0337,2.0379,2.0391,2.0413,2.0454,2.0449,2.0488,2.0527,2.0506,2.0564,2.0579,2.0622,2.0635,2.068,2.0648,2.0675,2.0683,2.0691,2.0703,2.0498,2.0686,2.0685,2.0685,2.0684,2.0684,0,2.0472,2.0477,2.0516,2.0547,2.0581,2.0542,2.0564,2.0596,2.0646,2.0663,2.0697,2.0754,2.0798,2.0796,2.0838,2.0875,2.086,2.0887,2.0886,2.0889,2.0727,2.0708,2.0899,2.0899,2.0899,2.0899,2.0899,2.0899,2.0576,2.0651,2.0641,2.0722,2.0727,2.0782,2.0798,2.0819,2.0832,2.0898,2.0934,2.0932,2.0943,2.0985,2.1025,2.1024,2.1043,2.1078,2.1071,2.0921,2.09,2.0879,2.0861,2.1082,2.1082,2.1229,2.1231,2.1232]},{"header":{"parameterUnit":"m.s-1","parameterCategory":1,"la1":30.2991,"la2":30.254,"lo1":-89.0895,"lo2":-89.0444,"dy":0.0017,"dx":0.0017,"nx":28,"ny":28,"refTime":"2023-10-20T09:00:00:Z","depth":0,"parameterNumber":3,"parameterNumberName":"V-component_of_WINDS"},"data":[0,0,0,0,0,0,0,0,0,0,0,0,0,0,0,0,0,0,0,0,0,0,0,0,0,0,0,0,0,0,0,0,0,0,0,0,0,0,0,0,0,0,0,0,0,0,0,0,0,0,0,0,0,0,0,0,0,0,-3.0093,-3.0094,0,-3.0179,-3.018,-3.0181,-3.0193,-3.0192,-3.0191,-3.019,-3.0277,-3.028,-3.0283,0,0,0,0,0,0,0,0,0,0,0,0,0,-2.9935,-2.9938,-3.0093,-3.0094,-3.0095,-3.0179,-3.0181,-3.0182,-3.0193,-3.0192,-3.0191,-3.019,-3.0276,-3.028,-3.0283,0,0,0,0,0,0,0,0,0,0,0,0,0,-3.0011,-2.9939,-3.0092,-3.0111,-3.0113,-3.0179,-3.0181,-3.0182,-3.0193,-3.0192,-3.0191,-3.019,-3.0275,-3.0279,-3.0284,-3.0337,0,0,-3.0298,-3.03,0,0,0,0,0,0,0,0,-3.0006,-3.0016,-3.0107,-3.011,-3.0112,-3.0174,-3.0157,-3.0234,-3.0194,-3.0163,-3.019,-3.0189,-3.0244,-3.0251,-3.027,-3.0341,-3.0345,-3.0298,-3.0301,-3.0303,-3.0304,0,0,0,0,0,0,0,-3.0001,-3.0013,-3.0127,-3.0108,-3.0112,-3.0114,-3.0123,-3.0171,-3.0209,-3.0165,-3.0166,-3.0177,-3.0245,-3.0265,-3.0272,-3.0346,-3.0298,-3.0302,-3.0305,-3.0307,-3.0465,-3.0467,0,0,0,0,0,0,-2.9993,-3.0008,-3.0124,-3.013,-3.0055,-3.0118,-3.0128,-3.0156,-3.0208,-3.0215,-3.0178,-3.0177,-3.0258,-3.0266,-3.0275,-3.034,-3.0303,-3.0307,-3.031,-3.0464,-3.0465,-3.0467,0,0,0,0,0,0,-2.9989,-3.0003,-3.0121,-3.0069,-3.0084,-3.0122,-3.0152,-3.0158,-3.0178,-3.0218,-3.0224,-3.0192,-3.0257,-3.0268,-3.0322,-3.0344,-3.0309,-3.0314,-3.0462,-3.0464,-3.0466,-3.0472,0,0,0,0,0,0,-2.9985,-3.0002,-3.0023,-3.007,-3.0087,-3.0166,-3.0154,-3.016,-3.0186,-3.0186,-3.0233,-3.0239,-3.0257,-3.0315,-3.0326,-3.0349,-3.0317,-3.046,-3.0463,-3.0466,-3.047,-3.0474,-3.0477,0,0,0,0,0,-2.9979,-3.002,-3.0024,-3.0037,-3.0114,-3.0168,-3.0178,-3.0198,-3.0188,-3.0209,-3.0235,-3.0238,-3.0339,-3.032,-3.0333,-3.0358,-3.0459,-3.0462,-3.0465,-3.0468,-3.0473,-3.0477,0,0,0,0,0,0,-2.9974,-3.0027,-3.0031,-3.0089,-3.0124,-3.017,-3.0197,-3.0203,-3.0241,-3.0239,-3.0262,-3.0273,-3.0325,-3.0347,-3.0324,-3.0412,-3.0398,-3.0404,-3.0396,-3.0401,-3.0405,-3.0398,-3.0321,0,0,0,0,0,-2.9979,-3.0019,-3.0063,-3.0109,-3.0127,-3.0159,-3.0183,-3.0196,-3.0233,-3.0247,-3.0277,-3.0312,-3.0352,-3.0378,-3.0417,-3.0473,-3.0483,-3.0497,-3.0501,-3.0504,-3.0508,-3.054,-3.0546,-3.0478,-3.0478,-3.0478,0,0,-2.9991,-3.0025,-3.0048,-3.0109,-3.0138,-3.0178,-3.0171,-3.0214,-3.0243,-3.0254,-3.0306,-3.0329,-3.037,-3.0425,-3.045,-3.0444,-3.053,-3.0508,-3.051,-3.0513,-3.0544,-3.055,-3.0556,-3.048,-3.048,-3.0479,0,0,-3.0033,-3.0063,-3.0105,-3.0134,-3.0178,-3.0199,-3.0209,-3.0255,-3.027,-3.0323,-3.0332,-3.0367,-3.0436,-3.0465,-3.0488,-3.0542,-3.0546,-3.0554,-3.0573,-3.0604,-3.0609,-3.0614,-3.0633,-3.0639,-3.0558,-3.0558,-3.0559,0,-3.0042,-3.0103,-3.0125,-3.0168,-3.0195,-3.0207,-3.0249,-3.0276,-3.033,-3.0348,-3.0341,-3.0427,-3.0456,-3.0518,-3.0531,-3.055,-3.0562,-3.0548,-3.0607,-3.0612,-3.0617,-3.0635,-3.0642,-3.0559,-3.0559,-3.0559,-3.0559,0,-3.0111,-3.0154,-3.0183,-3.0236,-3.0265,-3.0308,-3.0336,-3.0363,-3.0374,-3.0396,-3.0449,-3.0484,-3.053,-3.0546,-3.0557,-3.061,-3.0605,-3.0602,-3.0588,-3.0623,-3.0641,-3.0648,-3.056,-3.056,-3.056,-3.056,0,0,-3.0151,-3.0217,-3.0227,-3.0251,-3.0301,-3.0334,-3.0377,-3.0423,-3.0446,-3.0483,-3.0519,-3.0577,-3.0575,-3.0602,-3.0616,-3.0643,-3.0683,-3.0636,-3.0638,-3.0643,-3.0743,-3.0745,-3.0752,-3.0686,-3.0687,-3.0688,-3.074,0,-3.0199,-3.0276,-3.0298,-3.0363,-3.0402,-3.0415,-3.0452,-3.0487,-3.0508,-3.0544,-3.0568,-3.0609,-3.0603,-3.0619,-3.0646,-3.0672,-3.0703,-3.0669,-3.0719,-3.0721,-3.0708,-3.0762,-3.0763,-3.081,-3.0747,-3.0748,-3.0749,0,-3.0264,-3.0303,-3.0372,-3.0418,-3.0435,-3.0468,-3.0512,-3.0547,-3.0586,-3.06,-3.063,-3.0642,-3.0687,-3.0671,-3.0733,-3.0709,-3.0731,-3.0747,-3.0749,-3.0754,-3.0736,-3.0767,-3.0825,-3.0832,-3.076,-3.0759,-3.0758,0,-3.0285,-3.0356,-3.0406,-3.0427,-3.0481,-3.0504,-3.0527,-3.0565,-3.0592,-3.063,-3.0648,-3.069,-3.0714,-3.0747,-3.0769,-3.0756,-3.0829,-3.0816,-3.0841,-3.0841,-3.0855,-3.0854,-3.0917,-3.0871,-3.087,-3.087,-3.087,0,-3.0335,-3.0377,-3.0417,-3.0448,-3.0495,-3.052,-3.0565,-3.0589,-3.0623,-3.0659,-3.0672,-3.0705,-3.0734,-3.077,-3.0788,-3.0837,-3.0847,-3.0859,-3.0863,-3.0858,-3.0856,-3.0872,-3.0869,-3.0872,-3.0872,-3.0871,-3.0871,0,-3.0367,-3.0395,-3.0451,-3.0498,-3.0511,-3.0544,-3.0584,-3.0614,-3.0637,-3.0681,-3.0693,-3.0728,-3.0772,-3.0799,-3.0854,-3.0866,-3.0919,-3.0922,-3.0906,-3.0908,-3.0932,-3.0929,-3.1007,-3.1018,-3.0964,-3.0965,-3.0965,0,-3.0397,-3.0429,-3.048,-3.0505,-3.0529,-3.057,-3.0597,-3.0623,-3.0651,-3.0698,-3.0723,-3.0768,-3.0805,-3.0875,-3.0904,-3.0947,-3.0951,-3.0975,-3.0957,-3.0951,-3.0951,-3.0948,-3.0952,-3.0978,-3.0978,-3.0979,-3.0979,0,-3.0446,-3.0459,-3.0498,-3.0543,-3.0576,-3.0612,-3.0647,-3.0667,-3.0699,-3.0729,-3.0775,-3.0804,-3.0861,-3.0905,-3.0951,-3.0974,-3.0982,-3.0985,-3.0993,-3.0987,-3.0976,-3.0982,-3.0914,-3.0982,-3.0982,-3.0982,-3.0982,-3.0981,-3.0478,-3.0507,-3.0548,-3.0592,-3.0621,-3.0655,-3.0686,-3.0713,-3.0751,-3.08,-3.0813,-3.0861,-3.0899,-3.0961,-3.0986,-3.1023,-3.1019,-3.1031,-3.1034,-3.1036,-3.1037,-3.0971,-3.1031,-3.1031,-3.1031,-3.1031,-3.1031,0,-3.0528,-3.0555,-3.0595,-3.0645,-3.0679,-3.0685,-3.0725,-3.0753,-3.0795,-3.083,-3.0867,-3.092,-3.0963,-3.0997,-3.1041,-3.1065,-3.1069,-3.1075,-3.1073,-3.1079,-3.1038,-3.1026,-3.1071,-3.1071,-3.1071,-3.1071,-3.1071,-3.1071,-3.0558,-3.0608,-3.0626,-3.0691,-3.0718,-3.0765,-3.0788,-3.0818,-3.0847,-3.0905,-3.0942,-3.0964,-3.0999,-3.1046,-3.1086,-3.1095,-3.111,-3.1116,-3.1125,-3.1086,-3.1081,-3.1077,-3.1067,-3.1119,-3.1119,-3.1163,-3.1163,-3.1163]}]]